EN

Hourly Weather Petrykivka

Today, 14 April, Wednesday

Time Temperature Precipitation Wind Pressure Humidity
00:00 +7°C° 0 mm 2 mps 755 mmHg 90%
01:00 +7°C° 0 mm 1 mps 754 mmHg 91%
02:00 +7°C° 0 mm 1 mps 754 mmHg 91%
03:00 +7°C° 0 mm 1 mps 754 mmHg 91%
04:00 +7°C° 0 mm 1 mps 754 mmHg 91%
05:00 +7°C° 0 mm 1 mps 753 mmHg 91%
06:00 +8°C° 0 mm 1 mps 753 mmHg 85%
07:00 +9°C° 0 mm 1 mps 753 mmHg 79%
08:00 +10°C° 0 mm 1 mps 753 mmHg 74%
09:00 +11°C° 0 mm 1 mps 753 mmHg 70%
10:00 +12°C° 0 mm 1 mps 752 mmHg 67%
11:00 +13°C° 0 mm 1 mps 752 mmHg 63%
12:00 +13°C° 0.1 mm 2 mps 752 mmHg 63%
13:00 +14°C° 0.1 mm 2 mps 752 mmHg 64%
14:00 +14°C° 0.1 mm 2 mps 751 mmHg 64%
15:00 +14°C° 0 mm 2 mps 751 mmHg 62%
16:00 +14°C° 0 mm 2 mps 751 mmHg 61%
17:00 +15°C° 0 mm 2 mps 751 mmHg 59%
18:00 +13°C° 0 mm 2 mps 751 mmHg 63%
19:00 +12°C° 0 mm 2 mps 751 mmHg 67%
20:00 +10°C° 0 mm 2 mps 751 mmHg 71%
21:00 +9°C° 0 mm 2 mps 751 mmHg 74%
22:00 +8°C° 0 mm 2 mps 751 mmHg 78%
23:00 +7°C° 0 mm 3 mps 750 mmHg 81%

Tomorrow, 15 April, Thursday

Time Temperature Precipitation Wind Pressure Humidity
00:00 +7°C° 0 mm 2 mps 750 mmHg 82%
01:00 +7°C° 0 mm 2 mps 750 mmHg 84%
02:00 +7°C° 0 mm 2 mps 750 mmHg 86%
03:00 +6°C° 0 mm 2 mps 750 mmHg 88%
04:00 +5°C° 0 mm 3 mps 750 mmHg 91%
05:00 +5°C° 0 mm 3 mps 750 mmHg 93%
06:00 +7°C° 0.2 mm 3 mps 750 mmHg 90%
07:00 +8°C° 0.2 mm 3 mps 750 mmHg 86%
08:00 +8°C° 0.2 mm 4 mps 750 mmHg 83%
09:00 +10°C° 0.5 mm 4 mps 750 mmHg 79%
10:00 +11°C° 0.5 mm 4 mps 750 mmHg 75%
11:00 +12°C° 0.5 mm 4 mps 750 mmHg 71%
12:00 +12°C° 0.7 mm 4 mps 749 mmHg 72%
13:00 +12°C° 0.7 mm 5 mps 749 mmHg 74%
14:00 +12°C° 0.7 mm 5 mps 749 mmHg 75%
15:00 +12°C° 0.3 mm 5 mps 749 mmHg 72%
16:00 +12°C° 0.3 mm 4 mps 749 mmHg 69%
17:00 +12°C° 0.3 mm 4 mps 749 mmHg 67%
18:00 +11°C° 0.1 mm 4 mps 749 mmHg 70%
19:00 +10°C° 0.1 mm 3 mps 749 mmHg 74%
20:00 +9°C° 0.1 mm 3 mps 750 mmHg 78%
21:00 +9°C° 0 mm 3 mps 750 mmHg 81%
22:00 +7°C° 0 mm 4 mps 750 mmHg 84%
23:00 +7°C° 0 mm 4 mps 749 mmHg 87%

Day after tomorrow, 16 April, Friday

Time Temperature Precipitation Wind Pressure Humidity
00:00 +6°C° 0 mm 4 mps 750 mmHg 87%
01:00 +5°C° 0 mm 4 mps 750 mmHg 88%
02:00 +5°C° 0 mm 3 mps 750 mmHg 88%
03:00 +5°C° 0 mm 3 mps 750 mmHg 88%
04:00 +5°C° 0 mm 3 mps 750 mmHg 88%
05:00 +5°C° 0 mm 3 mps 750 mmHg 88%
06:00 +6°C° 0 mm 4 mps 750 mmHg 87%
07:00 +6°C° 0 mm 4 mps 751 mmHg 86%
08:00 +7°C° 0 mm 5 mps 751 mmHg 84%
09:00 +7°C° 0 mm 5 mps 751 mmHg 82%
10:00 +7°C° 0 mm 5 mps 751 mmHg 80%
11:00 +8°C° 0 mm 5 mps 751 mmHg 78%
12:00 +8°C° 0.1 mm 5 mps 752 mmHg 74%
13:00 +10°C° 0.1 mm 4 mps 752 mmHg 71%
14:00 +10°C° 0.1 mm 4 mps 752 mmHg 67%
15:00 +10°C° 0.2 mm 4 mps 752 mmHg 67%
16:00 +10°C° 0.2 mm 4 mps 752 mmHg 67%
17:00 +10°C° 0.2 mm 4 mps 752 mmHg 67%
18:00 +10°C° 0.2 mm 4 mps 752 mmHg 72%
19:00 +8°C° 0.2 mm 4 mps 752 mmHg 76%
20:00 +8°C° 0.2 mm 3 mps 753 mmHg 81%
21:00 +7°C° 0.1 mm 3 mps 753 mmHg 83%
22:00 +5°C° 0.1 mm 3 mps 753 mmHg 85%
23:00 +4°C° 0.1 mm 3 mps 753 mmHg 87%

17 April, Saturday

Time Temperature Precipitation Wind Pressure Humidity
00:00 +4°C° 0 mm 3 mps 753 mmHg 88%
01:00 +4°C° 0 mm 2 mps 754 mmHg 89%
02:00 +3°C° 0 mm 2 mps 754 mmHg 89%
03:00 +3°C° 0 mm 2 mps 754 mmHg 90%
04:00 +3°C° 0 mm 2 mps 754 mmHg 90%
05:00 +3°C° 0 mm 2 mps 754 mmHg 91%
06:00 +4°C° 0 mm 2 mps 754 mmHg 87%
07:00 +4°C° 0 mm 3 mps 754 mmHg 84%
08:00 +5°C° 0 mm 3 mps 754 mmHg 81%
09:00 +7°C° 0 mm 3 mps 754 mmHg 78%
10:00 +7°C° 0 mm 3 mps 755 mmHg 76%
11:00 +8°C° 0 mm 3 mps 755 mmHg 73%
12:00 +8°C° 0 mm 3 mps 755 mmHg 70%
13:00 +9°C° 0 mm 2 mps 755 mmHg 67%
14:00 +10°C° 0 mm 2 mps 755 mmHg 64%
15:00 +10°C° 0 mm 2 mps 755 mmHg 65%
16:00 +10°C° 0 mm 2 mps 755 mmHg 66%
17:00 +11°C° 0 mm 1 mps 754 mmHg 66%
18:00 +10°C° 0 mm 1 mps 755 mmHg 69%
19:00 +9°C° 0 mm 2 mps 755 mmHg 73%
20:00 +8°C° 0 mm 2 mps 755 mmHg 76%
21:00 +8°C° 0 mm 2 mps 755 mmHg 77%
22:00 +8°C° 0 mm 2 mps 755 mmHg 78%
23:00 +9°C° 0 mm 1 mps 754 mmHg 79%

18 April, Sunday

Time Temperature Precipitation Wind Pressure Humidity
00:00 +8°C° 0 mm 2 mps 754 mmHg 80%
01:00 +7°C° 0 mm 2 mps 754 mmHg 81%
02:00 +7°C° 0 mm 2 mps 754 mmHg 83%
03:00 +7°C° 0 mm 2 mps 754 mmHg 82%
04:00 +8°C° 0 mm 1 mps 754 mmHg 82%
05:00 +8°C° 0 mm 1 mps 754 mmHg 82%
06:00 +9°C° 0 mm 1 mps 754 mmHg 77%
07:00 +10°C° 0 mm 1 mps 754 mmHg 72%
08:00 +11°C° 0 mm 1 mps 755 mmHg 68%
09:00 +11°C° 0 mm 1 mps 755 mmHg 63%
10:00 +12°C° 0 mm 1 mps 755 mmHg 58%
11:00 +13°C° 0 mm 1 mps 755 mmHg 53%
12:00 +13°C° 0 mm 2 mps 755 mmHg 53%
13:00 +13°C° 0 mm 2 mps 755 mmHg 52%
14:00 +13°C° 0 mm 3 mps 755 mmHg 51%
15:00 +13°C° 0 mm 3 mps 755 mmHg 52%
16:00 +13°C° 0 mm 3 mps 755 mmHg 53%
17:00 +12°C° 0 mm 3 mps 755 mmHg 54%
18:00 +11°C° 0 mm 3 mps 755 mmHg 59%
19:00 +10°C° 0 mm 3 mps 756 mmHg 64%
20:00 +9°C° 0 mm 3 mps 756 mmHg 70%
21:00 +9°C° 0 mm 3 mps 756 mmHg 73%
22:00 +8°C° 0 mm 3 mps 756 mmHg 76%
23:00 +7°C° 0 mm 3 mps 756 mmHg 79%

19 April, Monday

Time Temperature Precipitation Wind Pressure Humidity
00:00 +7°C° 0 mm 3 mps 756 mmHg 80%
01:00 +7°C° 0 mm 3 mps 756 mmHg 81%
02:00 +7°C° 0 mm 3 mps 756 mmHg 82%
03:00 +5°C° 0 mm 3 mps 756 mmHg 83%
04:00 +5°C° 0 mm 3 mps 756 mmHg 84%
05:00 +5°C° 0 mm 3 mps 756 mmHg 86%
06:00 +8°C° 0 mm 3 mps 756 mmHg 81%
07:00 +8°C° 0 mm 4 mps 757 mmHg 76%
08:00 +10°C° 0 mm 5 mps 757 mmHg 71%
09:00 +12°C° 0 mm 5 mps 757 mmHg 65%
10:00 +14°C° 0 mm 5 mps 757 mmHg 59%
11:00 +15°C° 0 mm 6 mps 757 mmHg 53%
12:00 +15°C° 0 mm 6 mps 756 mmHg 51%
13:00 +16°C° 0 mm 6 mps 756 mmHg 49%
14:00 +16°C° 0 mm 6 mps 756 mmHg 47%
15:00 +16°C° 0 mm 6 mps 756 mmHg 49%
16:00 +15°C° 0 mm 6 mps 756 mmHg 51%
17:00 +15°C° 0 mm 6 mps 756 mmHg 54%
18:00 +12°C° 0 mm 7 mps 756 mmHg 59%
19:00 +11°C° 0 mm 7 mps 756 mmHg 63%
20:00 +10°C° 0 mm 8 mps 756 mmHg 68%
21:00 +9°C° 0 mm 8 mps 755 mmHg 70%
22:00 +9°C° 0 mm 8 mps 755 mmHg 72%
23:00 +7°C° 0 mm 8 mps 755 mmHg 74%
Show more

We Need Your Consent

Meteoprog and our Service Providers may store and access personal data such as cookies, device identifiers or other similar technologies on your device and process such data to personalise content and ads, as well as provide social media features and to analyse the traffic.

  • Store and/or access information on your device

    Cookies, device identifiers or other information can be stored or accessed on your device for the purposes indicated above.

  • Personalised ads and content, ad and content measurement, audience insights, and products development

    Ads and content can be personalised based on a profile. More data can be added to better personalise ads and content. Ad and content performance can be measured. Insights about the audience who saw the ads and content can be derived. Such data can be used to develop or improve user’s experience, systems and software.

By clicking ‘I Agree’ you will allow the use of indicated cookies, device identifiers, web beacons or other similar technologies. Your settings can be changed in the browser on your device.

For certain purposes, legitimate interests may be relied on, rather than consent. You can read more about this in our Privacy and Cookie Policy.